EN

Hourly Weather Ali-Yurt

Today, 19 January, Tuesday

Time Temperature Precipitation Wind Pressure Humidity
00:00 -3°C° 0 mm 1 mps 698 mmHg 81%
01:00 -3°C° 0.1 mm 1 mps 698 mmHg 84%
02:00 -3°C° 0.1 mm 1 mps 699 mmHg 87%
03:00 -4°C° 0 mm 1 mps 699 mmHg 91%
04:00 -4°C° 0.2 mm 1 mps 700 mmHg 92%
05:00 -4°C° 0.2 mm 1 mps 700 mmHg 93%
06:00 -4°C° 0.2 mm 1 mps 701 mmHg 94%
07:00 -4°C° 0.2 mm 1 mps 701 mmHg 92%
08:00 -5°C° 0.2 mm 0 mps 701 mmHg 90%
09:00 -5°C° 0 mm 0 mps 701 mmHg 87%
10:00 -3°C° 0 mm 1 mps 701 mmHg 82%
11:00 -3°C° 0 mm 1 mps 701 mmHg 78%
12:00 -2°C° 0 mm 1 mps 701 mmHg 74%
13:00 -2°C° 0 mm 1 mps 700 mmHg 72%
14:00 -1°C° 0 mm 1 mps 700 mmHg 70%
15:00 -1°C° 0 mm 1 mps 700 mmHg 68%
16:00 -2°C° 0 mm 1 mps 700 mmHg 71%
17:00 -3°C° 0 mm 1 mps 701 mmHg 74%
18:00 -4°C° 0 mm 1 mps 701 mmHg 76%
19:00 -4°C° 0 mm 1 mps 701 mmHg 77%
20:00 -6°C° 0 mm 1 mps 702 mmHg 79%
21:00 -6°C° 0 mm 0 mps 702 mmHg 80%
22:00 -6°C° 0 mm 1 mps 702 mmHg 80%
23:00 -6°C° 0 mm 1 mps 702 mmHg 81%

Tomorrow, 20 January, Wednesday

Time Temperature Precipitation Wind Pressure Humidity
00:00 -7°C° 0 mm 1 mps 702 mmHg 81%
01:00 -7°C° 0.1 mm 1 mps 702 mmHg 83%
02:00 -7°C° 0.1 mm 1 mps 702 mmHg 86%
03:00 -7°C° 0.1 mm 1 mps 702 mmHg 88%
04:00 -7°C° 0.1 mm 1 mps 702 mmHg 88%
05:00 -7°C° 0.1 mm 1 mps 702 mmHg 88%
06:00 -8°C° 0.1 mm 1 mps 702 mmHg 88%
07:00 -7°C° 0 mm 1 mps 702 mmHg 85%
08:00 -7°C° 0 mm 1 mps 702 mmHg 81%
09:00 -6°C° 0 mm 1 mps 702 mmHg 77%
10:00 -4°C° 0 mm 1 mps 703 mmHg 76%
11:00 -3°C° 0 mm 1 mps 703 mmHg 74%
12:00 -3°C° 0 mm 1 mps 703 mmHg 73%
13:00 -3°C° 0.1 mm 1 mps 703 mmHg 77%
14:00 -3°C° 0.1 mm 1 mps 702 mmHg 81%
15:00 -3°C° 0.1 mm 1 mps 702 mmHg 85%
16:00 -4°C° 0.2 mm 1 mps 703 mmHg 87%
17:00 -4°C° 0.2 mm 1 mps 704 mmHg 90%
18:00 -6°C° 0.2 mm 1 mps 704 mmHg 92%
19:00 -6°C° 0.1 mm 1 mps 704 mmHg 92%
20:00 -7°C° 0.1 mm 1 mps 704 mmHg 91%
21:00 -7°C° 0.1 mm 1 mps 704 mmHg 91%
22:00 -7°C° 0 mm 1 mps 705 mmHg 89%
23:00 -8°C° 0 mm 1 mps 705 mmHg 87%

Day after tomorrow, 21 January, Thursday

Time Temperature Precipitation Wind Pressure Humidity
00:00 -8°C° 0 mm 1 mps 705 mmHg 85%
01:00 -8°C° 0 mm 1 mps 705 mmHg 83%
02:00 -9°C° 0 mm 2 mps 705 mmHg 81%
03:00 -10°C° 0 mm 2 mps 705 mmHg 78%
04:00 -9°C° 0 mm 1 mps 706 mmHg 76%
05:00 -9°C° 0 mm 1 mps 706 mmHg 75%
06:00 -9°C° 0 mm 1 mps 706 mmHg 73%
07:00 -8°C° 0 mm 1 mps 707 mmHg 71%
08:00 -7°C° 0 mm 1 mps 707 mmHg 68%
09:00 -6°C° 0 mm 0 mps 708 mmHg 66%
10:00 -4°C° 0 mm 1 mps 708 mmHg 63%
11:00 -3°C° 0 mm 1 mps 708 mmHg 60%
12:00 -2°C° 0 mm 1 mps 708 mmHg 57%
13:00 -2°C° 0 mm 1 mps 708 mmHg 57%
14:00 -2°C° 0 mm 1 mps 708 mmHg 57%
15:00 -1°C° 0 mm 1 mps 708 mmHg 58%
16:00 -2°C° 0 mm 1 mps 708 mmHg 61%
17:00 -3°C° 0 mm 1 mps 709 mmHg 64%
18:00 -4°C° 0 mm 1 mps 709 mmHg 67%
19:00 -6°C° 0 mm 2 mps 710 mmHg 64%
20:00 -6°C° 0 mm 2 mps 710 mmHg 61%
21:00 -6°C° 0 mm 2 mps 710 mmHg 57%
22:00 -6°C° 0 mm 2 mps 710 mmHg 56%
23:00 -6°C° 0 mm 2 mps 710 mmHg 54%

22 January, Friday

Time Temperature Precipitation Wind Pressure Humidity
00:00 -6°C° 0 mm 2 mps 710 mmHg 53%
01:00 -6°C° 0 mm 2 mps 710 mmHg 52%
02:00 -6°C° 0 mm 2 mps 710 mmHg 51%
03:00 -6°C° 0 mm 2 mps 710 mmHg 51%
04:00 -6°C° 0 mm 2 mps 710 mmHg 50%
05:00 -6°C° 0 mm 2 mps 710 mmHg 49%
06:00 -6°C° 0 mm 2 mps 709 mmHg 49%
07:00 -3°C° 0 mm 1 mps 710 mmHg 48%
08:00 -2°C° 0 mm 1 mps 710 mmHg 48%
09:00 0°C° 0 mm 1 mps 710 mmHg 47%
10:00 +1°C° 0 mm 1 mps 710 mmHg 46%
11:00 +3°C° 0 mm 1 mps 710 mmHg 45%
12:00 +3°C° 0 mm 0 mps 709 mmHg 43%
13:00 +3°C° 0 mm 0 mps 709 mmHg 46%
14:00 +4°C° 0 mm 1 mps 709 mmHg 48%
15:00 +4°C° 0 mm 1 mps 708 mmHg 51%
16:00 +3°C° 0 mm 1 mps 708 mmHg 53%
17:00 +1°C° 0 mm 1 mps 708 mmHg 56%
18:00 0°C° 0 mm 1 mps 708 mmHg 59%
19:00 -1°C° 0 mm 1 mps 708 mmHg 58%
20:00 -1°C° 0 mm 1 mps 708 mmHg 58%
21:00 -1°C° 0 mm 1 mps 708 mmHg 57%
22:00 -1°C° 0 mm 1 mps 708 mmHg 57%
23:00 -1°C° 0 mm 1 mps 708 mmHg 56%

23 January, Saturday

Time Temperature Precipitation Wind Pressure Humidity
00:00 -1°C° 0 mm 1 mps 708 mmHg 56%
01:00 -1°C° 0 mm 1 mps 708 mmHg 55%
02:00 -1°C° 0 mm 1 mps 707 mmHg 54%
03:00 -1°C° 0 mm 1 mps 707 mmHg 54%
04:00 -1°C° 0 mm 1 mps 707 mmHg 53%
05:00 -1°C° 0 mm 1 mps 707 mmHg 53%
06:00 -1°C° 0 mm 1 mps 707 mmHg 52%
07:00 0°C° 0 mm 1 mps 707 mmHg 52%
08:00 0°C° 0 mm 1 mps 707 mmHg 51%
09:00 +1°C° 0 mm 1 mps 707 mmHg 51%
10:00 +2°C° 0 mm 1 mps 707 mmHg 51%
11:00 +2°C° 0 mm 0 mps 707 mmHg 50%
12:00 +4°C° 0 mm 0 mps 706 mmHg 50%
13:00 +4°C° 0 mm 0 mps 706 mmHg 52%
14:00 +3°C° 0 mm 0 mps 706 mmHg 53%
15:00 +4°C° 0 mm 1 mps 705 mmHg 55%
16:00 +3°C° 0 mm 1 mps 705 mmHg 58%
17:00 0°C° 0 mm 0 mps 705 mmHg 61%
18:00 -1°C° 0 mm 0 mps 705 mmHg 64%
19:00 -1°C° 0 mm 0 mps 705 mmHg 63%
20:00 0°C° 0 mm 1 mps 705 mmHg 62%
21:00 0°C° 0 mm 1 mps 705 mmHg 61%
22:00 0°C° 0 mm 1 mps 705 mmHg 60%
23:00 0°C° 0 mm 1 mps 705 mmHg 60%

24 January, Sunday

Time Temperature Precipitation Wind Pressure Humidity
00:00 0°C° 0 mm 1 mps 704 mmHg 59%
01:00 0°C° 0 mm 1 mps 704 mmHg 59%
02:00 0°C° 0 mm 1 mps 704 mmHg 58%
03:00 0°C° 0 mm 1 mps 704 mmHg 58%
04:00 0°C° 0 mm 1 mps 704 mmHg 58%
05:00 0°C° 0 mm 1 mps 704 mmHg 57%
06:00 0°C° 0 mm 1 mps 703 mmHg 57%
07:00 +1°C° 0 mm 1 mps 703 mmHg 56%
08:00 +2°C° 0 mm 1 mps 703 mmHg 55%
09:00 +2°C° 0 mm 1 mps 704 mmHg 54%
10:00 +4°C° 0 mm 1 mps 703 mmHg 54%
11:00 +5°C° 0 mm 1 mps 703 mmHg 53%
12:00 +6°C° 0 mm 1 mps 702 mmHg 53%
13:00 +6°C° 0 mm 1 mps 702 mmHg 55%
14:00 +6°C° 0 mm 1 mps 702 mmHg 58%
15:00 +6°C° 0 mm 1 mps 701 mmHg 60%
16:00 +4°C° 0 mm 1 mps 702 mmHg 62%
17:00 +3°C° 0 mm 1 mps 702 mmHg 64%
18:00 +2°C° 0 mm 1 mps 702 mmHg 66%
19:00 +2°C° 0 mm 1 mps 702 mmHg 65%
20:00 +2°C° 0 mm 1 mps 702 mmHg 64%
21:00 +2°C° 0 mm 1 mps 702 mmHg 64%
22:00 +2°C° 0 mm 1 mps 702 mmHg 63%
23:00 +2°C° 0 mm 1 mps 702 mmHg 62%
Show more